Retour au catalogue

ZY-1 02D

ActifScienceSSO
NORAD 44528·PAYLOAD·🇨🇳 China

Lancé Sep 12, 2019 depuis Taiyuan Satellite Launch Center

Loading…

Prochains Passages (prochaines 24 heures)

TLE

FraisSource: Space-Track

Époque: Sep 14, 2026, 22:16 UTC

1 44528U 19059A   26257.92793792  .00000075  00000-0  41863-4 0  9995
2 44528  98.6641 319.7539 0005358 103.9482 256.2299 14.35281717367217

Suivez ZY-1 02D en temps réel avec AllMySat

Download on the App Store